Regional Weather Roundup
Issued by NWS

Home | Current Version | Previous Version | Graphics & Text | Print | Product List | Glossary On
Versions: 1 2 3 4 5 6 7 8 9 10 11 12 13 14 15 16 17 18 19 20 21 22 23 24 25 26 27 28 29 30 31 32 33 34 35 36 37 38 39 40 41 42 43 44 45 46 47 48 49
000
ASUS45 KSLC 281710
RWRUT

UTAH REGIONAL WEATHER ROUNDUP
NATIONAL WEATHER SERVICE SALT LAKE CITY UT
1100 AM MDT FRI AUG 28 2015

UTZ001>011-023>025-281800-

NORTHERN UTAH

CITY           SKY/WX    TMP DP  RH WIND       PRES   REMARKS
BRIGHAM CITY   SUNNY     76  47  35 CALM      30.22F
HILL AFB       SUNNY     77  46  33 E13       30.24S
LOGAN          SUNNY     71  51  49 VRB5      30.23S
OGDEN          SUNNY     81  45  28 VRB3      30.21F
PROVO AIRPORT  MOSUNNY   75  48  38 SE7       30.25S
SALT LAKE CITY MOSUNNY   81  47  30 SE9       30.19F
VERNAL         SUNNY     71  46  40 S3        30.33S
WENDOVER       SUNNY     77  43  29 E7        30.20S
HEBER CITY     SUNNY     68  45  42 CALM      30.32F
WEST JORDAN    SUNNY     79  46  31 SE13      30.23F

$$

UTZ012>022-026-027-281800-

SOUTHERN/CENTRAL UTAH

CITY           SKY/WX    TMP DP  RH WIND       PRES   REMARKS
BLANDING       SUNNY     81  45  27 SW5       30.37R
BRYCE CANYON   SUNNY     71  45  39 NE7       30.45S
CEDAR CITY     SUNNY     76  45  33 CALM      30.29R
DELTA          SUNNY     78  40  25 CALM      30.24S
HANKSVILLE     SUNNY     79  48  34 N5        30.26S
MILFORD        SUNNY     77  46  33 S5        30.25S
MOAB/CYNLANDS  SUNNY     81  48  31 E8        30.24S
PRICE          SUNNY     77  41  27 VRB7      30.34R
ST GEORGE      SUNNY     82  52  34 W3        30.12F
KANAB          SUNNY     81  54  39 CALM      30.30S

$$

REGIONAL REPORTS     COLORADO/ARIZONA

CITY           SKY/WX    TMP DP  RH WIND       PRES   REMARKS
CRAIG, CO      SUNNY     69  50  50 CALM      30.39S
GRAND JUNCTION SUNNY     71  52  50 SE12      30.30S
RIFLE          SUNNY     66  52  60 VRB3      30.36F
MONTROSE       SUNNY     70  51  51 CALM      30.37S
CORTEZ         SUNNY     76  47  35 CALM      30.29S
PAGE, AZ       SUNNY     82  51  34 N6        30.20S
GRAND CANYON   PTSUNNY   76  46  34 NW3       30.36R
KINGMAN        SUNNY     92  53  26 VRB3      30.12R
FLAGSTAFF      SUNNY     74  49  41 NE10      30.39R

$$

REGIONAL REPORTS    NEVADA/IDAHO/WYOMING

CITY           SKY/WX    TMP DP  RH WIND       PRES   REMARKS
LAS VEGAS, NV  MOSUNNY   93  52  24 VRB3      29.98S HX  90
ELY            SUNNY     79  41  25 S6        30.31F
ELKO           SUNNY     78  37  22 NE7       30.21F
POCATELLO, ID  SUNNY     78  45  30 E9        30.20F
BURLEY         SUNNY     78  47  33 E8        30.13F
EVANSTON, WY   MOSUNNY   73  39  29 S6        30.41S
ROCK SPRINGS   SUNNY     69  43  38 SW10      30.39S
KEMMERER       SUNNY     73  37  27 W7        30.42S

$$



USA.gov is the U.S. government's official web portal to all federal, state and local government web resources and services.